Regional Weather Roundup
Issued by NWS

Home | Current Version | Previous Version | Graphics & Text | Print | Product List | Glossary On
Versions: 1 2 3 4 5 6 7 8 9 10 11 12 13 14 15 16 17 18 19 20 21 22 23 24 25 26 27 28 29 30 31 32 33 34 35 36 37 38 39 40 41 42 43 44 45 46 47 48 49 50
000
ASUS45 KTFX 240510
RWRMT
MONTANA REGIONAL WEATHER ROUNDUP
NATIONAL WEATHER SERVICE GREAT FALLS MT
1100 PM MDT FRI JUN 23 2017

NOTE: "FAIR" INDICATES FEW OR NO CLOUDS BELOW 12000 FEET WITH NO
SIGNIFICANT WEATHER AND/OR OBSTRUCTIONS TO VISIBILITY.

MTZ001>007-043-240600-
WEST OF THE DIVIDE

CITY           SKY/WX    TMP DP  RH WIND       PRES   REMARKS
KALISPELL      CLEAR     56  46  69 CALM      30.21R
MISSOULA       CLEAR     63  38  39 NW9       30.21R
BUTTE          CLEAR     60  32  34 SW3       30.31R
MULLAN PASS    CLEAR     53  29  39 NW6       30.34R
ANACONDA         N/A     54  36  50 NE7       30.29R
DEER LODGE       N/A     55  37  50 NW7       30.31R
EUREKA           N/A     55  43  62 MISG      30.19R
$$

MTZ008-052>055-240600-
SOUTHWEST MONTANA

CITY           SKY/WX    TMP DP  RH WIND       PRES   REMARKS
BOZEMAN        CLEAR     51  39  63 NW7       30.28R
DILLON         CLEAR     54  36  50 NE8       30.27R
W YELLOWSTONE  CLEAR     48  28  46 CALM      30.33S
ENNIS          CLEAR     52  36  54 N10       30.33R
THREE FORKS      N/A     54  41  61 CALM      30.24R
$$

MTZ009-010-012-014-046-048-049-054-240600-
EAST SLOPES AND CENTRAL MONTANA

CITY           SKY/WX    TMP DP  RH WIND       PRES   REMARKS
CUT BANK       CLOUDY    56  41  57 CALM      30.31R
GREAT FALLS    CLOUDY    59  37  44 NE6       30.31R
MALMSTROM AFB  CLOUDY    60  40  47 CALM      30.30R
HELENA         CLEAR     57  38  48 W6        30.28R
CHOTEAU          N/A     55  45  67 N3        30.33S
$$

MTZ011-013-016-021-045-047-050-051-240600-
NORTH CENTRAL MONTANA

CITY           SKY/WX    TMP DP  RH WIND       PRES   REMARKS
HAVRE          CLEAR     50  35  56 SW6       30.25R
LEWISTOWN      PTCLDY    47  38  71 S8        30.31R
N BAR RANCH      N/A     46  34  61 W7        30.34R
CHINOOK          N/A     54  36  50 CALM      30.24R
$$

MTZ017>020-022>027-061-062-240600-
NORTHEAST MONTANA

CITY           SKY/WX    TMP DP  RH WIND       PRES   REMARKS
GLASGOW        CLEAR     56  30  37 NW3       30.19S
JORDAN           N/A     52  30  43 N7        30.23R
SIDNEY         CLEAR     53  33  46 NW10      30.16S
WOLF POINT     MOCLDY    51  33  50 W6        30.18R
MALTA          CLEAR     48  37  66 CALM      30.21S
PLENTYWOOD       N/A     50  36  57 N12       30.17R
$$

MTZ028>42-056>058-240600-
SOUTHCENTRAL AND SOUTHEAST MONTANA

CITY           SKY/WX    TMP DP  RH WIND       PRES   REMARKS
BAKER          CLEAR     50  29  44 CALM      30.22R
BILLINGS       CLOUDY    62  36  37 CALM      30.28R
LIVINGSTON     CLEAR     53  38  56 SE9       30.30R
MILES CITY     CLEAR     55  27  34 NW6       30.22R
BIG TIMBER     CLOUDY    54  37  54 NE3       30.35R
FORSYTH          N/A     61  28  29 CALM      30.23S
ROUNDUP          N/A     56  30  37 NW1       30.18R
$$

REGIONAL REPORTS...DAKOTAS

CITY           SKY/WX    TMP DP  RH WIND       PRES   REMARKS
WILLISTON      CLOUDY    54  38  54 N21G28    30.16R
MINOT          CLOUDY    51  43  74 NW14      30.10R
DICKINSON      CLOUDY    47  32  56 W5        30.13F
BEACH            N/A     46  30  53 W7        30.21S
CROSBY         CLOUDY    50  37  62 NW13      30.15S
TIOGA          DRIZZLE   50  39  66 N14       30.15R
WATFORD CITY     N/A     46  39  76 W6        30.13S
BISMARCK       PTCLDY    54  38  54 W5        30.11S
GRAND FORKS    CLOUDY    56  43  61 NW12      29.97F
FARGO          CLEAR     53  40  61 W9        30.00F
BUFFALO SD       N/A     51  29  42 W7        30.15S
RAPID CITY     CLEAR     48  28  46 NW7       30.24R
$$

REGIONAL REPORTS...WYOMING/IDAHO/WASHINGTON

CITY           SKY/WX    TMP DP  RH WIND       PRES   REMARKS
GILLETTE       CLOUDY    43  37  79 SW5       30.29R
SHERIDAN       CLOUDY    51  37  58 W6        30.30R
BUFFALO WY     CLOUDY    53  36  52 NW5       30.34R
CODY           CLEAR     55  32  41 NW7       30.34R
YELLOWSTONE LA   N/A     42  29  59 NW3       30.41R
IDAHO FALLS    CLEAR     61  41  47 CALM      30.22R
SALMON         CLEAR     59  37  44 CALM      30.20R
BOISE          CLEAR     71  33  24 SW3       30.11S
SPOKANE        CLEAR     70  36  28 SW5       30.19R
$$

REGIONAL REPORTS...ALBERTA

CITY           SKY/WX    TMP DP  RH WIND       PRES   REMARKS
EDMONTON       PTCLDY    52  41  66 SW3       30.23R
CALGARY        LGT RAIN  57  39  51 NW8G17    30.31R
LETHBRIDGE     MOCLDY    52  43  71 S8        30.27R
MEDICINE HAT   PTCLDY    59  43  55 N3        30.23R
WATERTON GATE    N/A     43  41  93 CALM        N/A
CARDSTON         N/A     55  41  58 S2          N/A
MILK RIVER       N/A     48  43  81 NW2         N/A
ONEFOUR          N/A     50  37  62 NW7         N/A
$$

REGIONAL REPORTS...SASKATCHEWAN

CITY           SKY/WX    TMP DP  RH WIND       PRES   REMARKS
SWIFT CURRENT  CLEAR     50  43  76 NW5       30.19R
REGINA         PTCLDY    43  37  81 NW9       30.17R
SASKATOON      PTCLDY    45  41  87 E7        30.22R
CYPRESS HILLS    N/A     46  37  71 NE1         N/A
VAL MARIE        N/A     46  36  66 NW6         N/A
ROCKGLEN         N/A     46  37  71 NE5         N/A
ASSINIBOIA       N/A     52  43  71 W5          N/A
$$



USA.gov is the U.S. government's official web portal to all federal, state and local government web resources and services.